When you browse on this site, cookies collect data to enhance your experience and personalize the content and advertising you see.
Visit our Privacy Policy to learn more. By continuing to use the site, you agree to this use of cookies and data.
  • In France
  • List of Countries
  • For 7 days
  • Water Temperature
  • Weather Map
  • Weather Widgets
  • user-avatar
    Login

    Hourly Weather Uige

    Today, 1 April, Wednesday

    Time Temperature Precipitation Wind Pressure Humidity
    00:00 +21°C° 1.5 mm 0 mps 690 mmHg 96%
    01:00 +23°C° 0 mm 1 mps 690 mmHg 97%
    02:00 +23°C° 0 mm 1 mps 690 mmHg 97%
    03:00 +23°C° 0 mm 1 mps 689 mmHg 96%
    04:00 +23°C° 0 mm 1 mps 689 mmHg 95%
    05:00 +23°C° 0 mm 1 mps 690 mmHg 95%
    06:00 +23°C° 0 mm 1 mps 690 mmHg 94%
    07:00 +23°C° 0 mm 1 mps 691 mmHg 94%
    08:00 +26°C° 0.1 mm 1 mps 691 mmHg 84%
    09:00 +28°C° 0.1 mm 1 mps 692 mmHg 74%
    10:00 +31°C° 0.1 mm 1 mps 692 mmHg 64%
    11:00 +32°C° 0.2 mm 1 mps 692 mmHg 59%
    12:00 +31°C° 0.2 mm 0 mps 692 mmHg 54%
    13:00 +33°C° 0.2 mm 0 mps 691 mmHg 49%
    14:00 +33°C° 0.6 mm 1 mps 690 mmHg 58%
    15:00 +31°C° 0.6 mm 1 mps 689 mmHg 67%
    16:00 +29°C° 0.6 mm 2 mps 688 mmHg 76%
    17:00 +27°C° 1.9 mm 2 mps 689 mmHg 82%
    18:00 +26°C° 1.9 mm 2 mps 689 mmHg 88%
    19:00 +24°C° 1.9 mm 2 mps 690 mmHg 94%
    20:00 +24°C° 1.4 mm 1 mps 690 mmHg 95%
    21:00 +23°C° 1.4 mm 1 mps 690 mmHg 96%
    22:00 +21°C° 1.4 mm 0 mps 691 mmHg 97%
    23:00 +21°C° 0.3 mm 0 mps 691 mmHg 98%

    Tomorrow, 2 April, Thursday

    Time Temperature Precipitation Wind Pressure Humidity
    00:00 +21°C° 0.3 mm 0 mps 691 mmHg 98%
    01:00 +21°C° 0.3 mm 0 mps 691 mmHg 99%
    02:00 +21°C° 0 mm 0 mps 690 mmHg 99%
    03:00 +21°C° 0 mm 0 mps 690 mmHg 98%
    04:00 +23°C° 0 mm 1 mps 690 mmHg 98%
    05:00 +23°C° 0 mm 1 mps 690 mmHg 98%
    06:00 +24°C° 0 mm 1 mps 691 mmHg 97%
    07:00 +24°C° 0 mm 1 mps 691 mmHg 97%
    08:00 +25°C° 0.1 mm 1 mps 691 mmHg 91%
    09:00 +26°C° 0.1 mm 1 mps 692 mmHg 85%
    10:00 +27°C° 0.1 mm 1 mps 692 mmHg 79%
    11:00 +28°C° 0.4 mm 1 mps 692 mmHg 75%
    12:00 +29°C° 0.4 mm 1 mps 692 mmHg 71%
    13:00 +29°C° 0.4 mm 1 mps 691 mmHg 67%
    14:00 +29°C° 0.3 mm 1 mps 691 mmHg 72%
    15:00 +28°C° 0.3 mm 1 mps 690 mmHg 77%
    16:00 +27°C° 0.3 mm 2 mps 689 mmHg 83%
    17:00 +26°C° 0.2 mm 1 mps 690 mmHg 86%
    18:00 +25°C° 0.2 mm 1 mps 690 mmHg 90%
    19:00 +22°C° 0.2 mm 0 mps 690 mmHg 93%
    20:00 +22°C° 0.1 mm 0 mps 690 mmHg 92%
    21:00 +22°C° 0.1 mm 0 mps 691 mmHg 91%
    22:00 +22°C° 0.1 mm 0 mps 691 mmHg 90%
    23:00 +24°C° 0 mm 1 mps 691 mmHg 91%

    Day after tomorrow, 3 April, Friday

    Time Temperature Precipitation Wind Pressure Humidity
    00:00 +23°C° 0 mm 1 mps 691 mmHg 91%
    01:00 +23°C° 0 mm 1 mps 690 mmHg 92%
    02:00 +23°C° 0 mm 1 mps 690 mmHg 93%
    03:00 +22°C° 0 mm 1 mps 690 mmHg 94%
    04:00 +22°C° 0 mm 1 mps 689 mmHg 95%
    05:00 +22°C° 0 mm 1 mps 690 mmHg 94%
    06:00 +23°C° 0 mm 1 mps 690 mmHg 92%
    07:00 +23°C° 0 mm 1 mps 691 mmHg 91%
    08:00 +25°C° 0 mm 1 mps 691 mmHg 83%
    09:00 +25°C° 0 mm 0 mps 692 mmHg 74%
    10:00 +27°C° 0 mm 0 mps 692 mmHg 66%
    11:00 +27°C° 0 mm 0 mps 691 mmHg 67%
    12:00 +27°C° 0 mm 0 mps 691 mmHg 68%
    13:00 +26°C° 0 mm 0 mps 690 mmHg 69%
    14:00 +28°C° 0 mm 1 mps 689 mmHg 71%
    15:00 +28°C° 0 mm 1 mps 689 mmHg 73%
    16:00 +27°C° 0 mm 1 mps 688 mmHg 74%
    17:00 +26°C° 0 mm 1 mps 689 mmHg 75%
    18:00 +25°C° 0 mm 1 mps 689 mmHg 76%
    19:00 +24°C° 0 mm 1 mps 689 mmHg 77%
    20:00 +22°C° 0 mm 0 mps 690 mmHg 79%
    21:00 +22°C° 0 mm 0 mps 690 mmHg 80%
    22:00 +22°C° 0 mm 0 mps 690 mmHg 81%
    23:00 +22°C° 0 mm 0 mps 690 mmHg 81%

    4 April, Saturday

    Time Temperature Precipitation Wind Pressure Humidity
    00:00 +22°C° 0 mm 0 mps 690 mmHg 81%
    01:00 +23°C° 0 mm 1 mps 690 mmHg 80%
    02:00 +23°C° 0 mm 1 mps 690 mmHg 82%
    03:00 +23°C° 0 mm 1 mps 689 mmHg 84%
    04:00 +23°C° 0 mm 1 mps 689 mmHg 85%
    05:00 +23°C° 0 mm 1 mps 689 mmHg 86%
    06:00 +23°C° 0 mm 1 mps 690 mmHg 86%
    07:00 +23°C° 0 mm 1 mps 691 mmHg 86%
    08:00 +25°C° 0 mm 1 mps 691 mmHg 80%
    09:00 +26°C° 0 mm 1 mps 691 mmHg 75%
    10:00 +26°C° 0 mm 0 mps 692 mmHg 69%
    11:00 +28°C° 0 mm 0 mps 691 mmHg 62%
    12:00 +31°C° 0 mm 1 mps 691 mmHg 55%
    13:00 +33°C° 0 mm 1 mps 690 mmHg 48%
    14:00 +33°C° 0 mm 1 mps 690 mmHg 51%
    15:00 +32°C° 0 mm 1 mps 689 mmHg 54%
    16:00 +31°C° 0 mm 1 mps 689 mmHg 58%
    17:00 +29°C° 0.1 mm 1 mps 689 mmHg 67%
    18:00 +27°C° 0.1 mm 1 mps 689 mmHg 76%
    19:00 +25°C° 0.1 mm 1 mps 689 mmHg 85%
    20:00 +22°C° 0.2 mm 0 mps 690 mmHg 86%
    21:00 +22°C° 0.2 mm 0 mps 690 mmHg 88%
    22:00 +21°C° 0.2 mm 0 mps 690 mmHg 89%
    23:00 +21°C° 0.2 mm 0 mps 690 mmHg 90%

    5 April, Sunday

    Time Temperature Precipitation Wind Pressure Humidity
    00:00 +21°C° 0.2 mm 0 mps 690 mmHg 91%
    01:00 +20°C° 0.2 mm 0 mps 690 mmHg 92%
    02:00 +20°C° 0 mm 0 mps 690 mmHg 94%
    03:00 +20°C° 0 mm 0 mps 690 mmHg 95%
    04:00 +22°C° 0 mm 1 mps 689 mmHg 97%
    05:00 +22°C° 0 mm 1 mps 690 mmHg 96%
    06:00 +23°C° 0 mm 1 mps 690 mmHg 96%
    07:00 +23°C° 0 mm 1 mps 691 mmHg 95%
    08:00 +23°C° 0 mm 0 mps 692 mmHg 88%
    09:00 +25°C° 0 mm 0 mps 692 mmHg 80%
    10:00 +27°C° 0 mm 0 mps 693 mmHg 72%
    11:00 +29°C° 0.8 mm 1 mps 692 mmHg 73%
    12:00 +29°C° 0.8 mm 1 mps 691 mmHg 74%
    13:00 +29°C° 0.8 mm 1 mps 690 mmHg 75%
    14:00 +29°C° 1 mm 1 mps 690 mmHg 78%
    15:00 +28°C° 1 mm 2 mps 689 mmHg 81%
    16:00 +28°C° 1 mm 2 mps 689 mmHg 84%
    17:00 +27°C° 0.8 mm 1 mps 689 mmHg 88%
    18:00 +26°C° 0.8 mm 1 mps 689 mmHg 92%
    19:00 +22°C° 0.8 mm 0 mps 690 mmHg 97%
    20:00 +22°C° 0.1 mm 0 mps 690 mmHg 97%
    21:00 +22°C° 0.1 mm 0 mps 690 mmHg 98%
    22:00 +21°C° 0.1 mm 0 mps 691 mmHg 98%
    23:00 +21°C° 0.1 mm 0 mps 691 mmHg 98%

    6 April, Monday

    Time Temperature Precipitation Wind Pressure Humidity
    00:00 +21°C° 0.1 mm 0 mps 690 mmHg 98%
    01:00 +21°C° 0.1 mm 0 mps 690 mmHg 99%
    02:00 +23°C° 0 mm 1 mps 690 mmHg 99%
    03:00 +23°C° 0 mm 1 mps 690 mmHg 99%
    04:00 +23°C° 0 mm 1 mps 690 mmHg 99%
    05:00 +23°C° 0 mm 1 mps 690 mmHg 98%
    06:00 +23°C° 0 mm 1 mps 691 mmHg 97%
    07:00 +22°C° 0 mm 0 mps 691 mmHg 96%
    08:00 +24°C° 0 mm 0 mps 692 mmHg 85%
    09:00 +28°C° 0 mm 1 mps 692 mmHg 74%
    10:00 +31°C° 0 mm 1 mps 693 mmHg 64%
    11:00 +32°C° 0.1 mm 1 mps 692 mmHg 58%
    12:00 +33°C° 0.1 mm 1 mps 691 mmHg 53%
    13:00 +34°C° 0.1 mm 1 mps 691 mmHg 48%
    14:00 +33°C° 0 mm 1 mps 690 mmHg 51%
    15:00 +33°C° 0 mm 1 mps 690 mmHg 54%
    16:00 +32°C° 0 mm 1 mps 689 mmHg 57%
    17:00 +30°C° 0.1 mm 1 mps 689 mmHg 66%
    18:00 +28°C° 0.1 mm 1 mps 689 mmHg 75%
    19:00 +23°C° 0.1 mm 0 mps 689 mmHg 84%
    20:00 +23°C° 0 mm 0 mps 690 mmHg 86%
    21:00 +22°C° 0 mm 0 mps 690 mmHg 87%
    22:00 +22°C° 0 mm 0 mps 690 mmHg 89%
    23:00 +21°C° 0 mm 0 mps 690 mmHg 90%
    Show more